APJ132 RJSS-RJBB

Flight info

Callsign APJ132
Flight time N/A
Altitude 30000
Route RIKYU Y882 GYODA Y88 NAKTU Y12 KEC Y43 KISEI Y46 CANDY
Aircraft A21N/M-SDE2E3FGHIRWXY/LB1

Departure

Time 2026-04-26 09:51
Airport Sendai Airport (RJSS)

Arrival

Time N/A
Airport Kansai International Airport (RJBB)
Time Latitude Longitude Altitude Speed Heading
2026-04-26 09:14 38.13909 140.93095 18 ft 0 kts 173°
2026-04-26 09:44 38.13918 140.93094 19 ft 4 kts 173°
2026-04-26 09:44 38.13944 140.93090 19 ft 4 kts 169°
2026-04-26 09:45 38.13966 140.93077 20 ft 4 kts 127°
2026-04-26 09:45 38.13974 140.93048 18 ft 4 kts 88°
2026-04-26 09:45 38.13974 140.93035 19 ft 0 kts 82°
2026-04-26 09:48 38.13987 140.93061 21 ft 11 kts 42°
2026-04-26 09:49 38.14045 140.93153 18 ft 15 kts 78°
2026-04-26 09:49 38.14086 140.93272 18 ft 16 kts 24°
2026-04-26 09:49 38.14132 140.93277 19 ft 0 kts 353°
2026-04-26 09:50 38.14145 140.93275 19 ft 4 kts 353°
2026-04-26 09:50 38.14184 140.93265 21 ft 8 kts 337°
2026-04-26 09:50 38.14211 140.93115 21 ft 41 kts 262°
2026-04-26 09:51 38.14141 140.92439 26 ft 111 kts 262°
2026-04-26 09:51 38.14010 140.91220 23 ft 165 kts 260°
2026-04-26 09:51 38.13854 140.89739 488 ft 167 kts 258°
2026-04-26 09:51 38.13611 140.88339 1120 ft 157 kts 230°
2026-04-26 09:52 38.12761 140.87628 1718 ft 151 kts 196°
2026-04-26 09:52 38.10658 140.88642 2489 ft 203 kts 128°
2026-04-26 09:52 38.09963 140.90293 3089 ft 220 kts 121°
2026-04-26 09:53 38.09215 140.92105 3538 ft 245 kts 122°
2026-04-26 09:53 38.08373 140.94090 4049 ft 263 kts 121°
2026-04-26 09:53 38.07487 140.96159 4857 ft 270 kts 120°
2026-04-26 09:53 38.06510 140.98195 5759 ft 270 kts 131°
2026-04-26 09:54 38.05033 140.99634 6561 ft 271 kts 159°
2026-04-26 09:54 38.03177 141.00044 7326 ft 272 kts 182°
2026-04-26 09:54 38.01273 140.99961 8145 ft 277 kts 185°
2026-04-26 09:54 37.99347 140.99855 9084 ft 276 kts 185°
2026-04-26 09:55 37.97444 140.99775 10030 ft 277 kts 185°
2026-04-26 09:55 37.95460 140.99704 10523 ft 296 kts 185°
2026-04-26 09:55 37.93318 140.99639 10838 ft 319 kts 184°
2026-04-26 09:55 37.91035 140.99580 11140 ft 340 kts 184°
2026-04-26 09:56 37.88599 140.99530 11410 ft 361 kts 184°
2026-04-26 09:56 37.86016 140.99482 11673 ft 379 kts 184°
2026-04-26 09:56 37.83318 140.99434 11925 ft 395 kts 184°
2026-04-26 09:56 37.80534 140.99378 12319 ft 403 kts 184°
2026-04-26 09:57 37.77741 140.99060 12930 ft 402 kts 194°
2026-04-26 09:57 37.75107 140.97935 13560 ft 400 kts 208°
2026-04-26 09:57 37.72799 140.95979 14101 ft 400 kts 223°
2026-04-26 09:57 37.70978 140.93331 14549 ft 401 kts 237°
2026-04-26 09:58 37.69739 140.90226 15093 ft 401 kts 248°
2026-04-26 09:58 37.68726 140.86935 15669 ft 403 kts 249°
2026-04-26 09:58 37.67727 140.83628 16177 ft 404 kts 249°
2026-04-26 09:58 37.66708 140.80322 16657 ft 405 kts 249°
2026-04-26 09:59 37.65668 140.77018 17132 ft 406 kts 248°
2026-04-26 09:59 37.64958 140.74769 17451 ft 407 kts 248°
2026-04-26 09:59 37.63563 140.70363 18044 ft 409 kts 248°
2026-04-26 09:59 37.62507 140.67033 18485 ft 410 kts 248°
2026-04-26 10:00 37.61441 140.63682 18889 ft 411 kts 248°
2026-04-26 10:00 37.60372 140.60320 19284 ft 413 kts 248°
2026-04-26 10:00 37.59301 140.56960 19706 ft 415 kts 248°
2026-04-26 10:00 37.58224 140.53578 20121 ft 416 kts 248°
2026-04-26 10:01 37.57140 140.50183 20534 ft 418 kts 248°
2026-04-26 10:01 37.56031 140.46787 20940 ft 421 kts 246°
2026-04-26 10:01 37.54645 140.43531 21446 ft 423 kts 240°
2026-04-26 10:01 37.53113 140.40350 21949 ft 426 kts 239°
2026-04-26 10:02 37.51560 140.37164 22409 ft 428 kts 239°
2026-04-26 10:02 37.50025 140.33998 22827 ft 430 kts 240°
2026-04-26 10:02 37.48464 140.30773 23252 ft 432 kts 240°
2026-04-26 10:02 37.46890 140.27522 23652 ft 434 kts 240°
2026-04-26 10:03 37.45317 140.24281 24139 ft 432 kts 240°
2026-04-26 10:03 37.43765 140.21081 24777 ft 425 kts 240°
2026-04-26 10:03 37.42235 140.17927 25448 ft 418 kts 240°
2026-04-26 10:03 37.40734 140.14839 26146 ft 411 kts 240°
2026-04-26 10:04 37.39254 140.11793 26812 ft 404 kts 240°
2026-04-26 10:04 37.37799 140.08802 27476 ft 397 kts 240°
2026-04-26 10:04 37.36370 140.05868 28108 ft 391 kts 240°
2026-04-26 10:04 37.34975 140.03014 28739 ft 385 kts 240°
2026-04-26 10:05 37.33581 140.00165 29340 ft 380 kts 240°
2026-04-26 10:05 37.32149 139.97420 29872 ft 371 kts 236°
2026-04-26 10:05 37.30465 139.94988 30125 ft 370 kts 229°
2026-04-26 10:05 37.28450 139.92923 30140 ft 378 kts 221°
2026-04-26 10:06 37.23565 139.90169 30125 ft 396 kts 205°
2026-04-26 10:06 37.18218 139.88363 30114 ft 398 kts 204°
2026-04-26 10:07 37.12872 139.86540 30105 ft 399 kts 205°
2026-04-26 10:07 37.07518 139.84688 30101 ft 399 kts 205°
2026-04-26 10:08 37.02161 139.82835 30126 ft 399 kts 205°
2026-04-26 10:08 36.96801 139.80978 30116 ft 400 kts 204°
2026-04-26 10:09 36.92342 139.79442 30118 ft 400 kts 204°
2026-04-26 10:09 36.86064 139.77269 30129 ft 401 kts 204°
2026-04-26 10:10 36.80708 139.75422 30135 ft 402 kts 204°
2026-04-26 10:10 36.75287 139.73560 30144 ft 402 kts 204°
2026-04-26 10:11 36.69914 139.71715 30135 ft 403 kts 204°
2026-04-26 10:11 36.64506 139.69861 30126 ft 404 kts 204°
2026-04-26 10:12 36.59082 139.68004 30119 ft 404 kts 204°
2026-04-26 10:12 36.54573 139.66471 30145 ft 405 kts 204°
2026-04-26 10:13 36.49136 139.64611 30127 ft 405 kts 204°
2026-04-26 10:13 36.43707 139.62751 30137 ft 403 kts 205°
2026-04-26 10:14 36.38765 139.59851 30128 ft 387 kts 221°
2026-04-26 10:14 36.34909 139.55315 30139 ft 381 kts 230°
2026-04-26 10:15 36.31280 139.50512 30131 ft 382 kts 230°
2026-04-26 10:15 36.27636 139.45747 30128 ft 382 kts 230°
2026-04-26 10:16 36.23966 139.40983 30134 ft 383 kts 230°
2026-04-26 10:16 36.20287 139.36200 30133 ft 383 kts 230°
2026-04-26 10:17 36.16747 139.31285 30130 ft 381 kts 236°
2026-04-26 10:17 36.14265 139.25523 30133 ft 380 kts 245°